STARLINK-4211 (52873 NORAD) Tracking and Keplerian Element Data

This shows tracking and keplerian element data for the satellite.

Feedback or suggestion? Click here.




ElementValue
Catalog52873
NameSTARLINK-4211
Epoch Orbit1642
Epoch Day270.25001157
Epoch Year2022
RAAN267.9626
Inclination53.2145
Eccentricity0.0001626
Argument of Perigee51.1696
Mean Anonmoly217.071
Mean Motion15.08955417
Decay Rate-0.00109463
L11 52873U 22062AV 22270.25001157 -.00109463 00000+0 -69434-2 0 9993
L22 52873 53.2145 267.9626 0001626 51.1696 217.0710 15.08955417 16424

Live tracking and technical data element details for STARLINK-4211 (NORAD 52873). STARLINK-4211 can be tracked NOW for your location showing map with azimuth and elevation plus other details from your city location.

Track the satellite on the map from your city or location and see movement details for azimuth, elevation, latitude, longitude, range, height, and movement on the map or in text.







IsCatalogInMostPopularTable: catalog: 52873, numindb: 5
Update: records affected: 1



GetName: 52873 STARLINK-4211

Hit Count: updated at: Thu, 06 Oct 2022 03:17:52 GMT